CAPE
0 0 0 0 0 0 0 0 0 0 1 1 0 0 0 0 1 0 0 0 0 0
0 0 0 0 0 0 0 0 0 0 0 1 1 1 0 0 0 5 3 0 0 0
0 0 0 0 0 0 0 0 0 0 0 0 2 2 1 1 2 5 7 2 3 0
0 0 0 0 0 0 0 0 0 0 0 0 0 1 2 1 1 0 0 0 0 1
0 0 0 0 0 0 0 0 0 0 0 0 0 0 1 1 2 1 0 0 0 0
0 0 0 0 0 0 0 0 0 0 0 0 0 0 0 0 1 2 1 0 1 1
0 0 0 0 0 0 0 0 0 0 0 0 0 0 0 0 0 0 1 1 1 1
0 0 0 0 0 0 0 0 0 0 0 0 0 0 0 0 0 0 0 0 0 0
0 0 0 0 0 0 0 0 0 0 0 0 0 0 0 0 0 0 0 0 0 0
0 0 0 0 0 0 0 0 0 0 0 0 0 0 0 0 0 0 0 0 0 0
0 0 0 0 0 0 0 0 0 0 0 0 0 0 0 0 0 0 0 0 0 0
0 0 0 0 0 0 0 0 0 0 0 0 0 0 0 0 0 0 0 0 0 0
0 0 0 0 0 0 0 0 0 0 0 0 0 0 0 0 0 0 0 0 0 0
0 0 0 0 0 0 0 0 0 0 0 0 0 0 0 0 0 0 0 0 0 0
CIN
-0 -0 -0 -0 -0 -0 -0 -0 -0 -0 -0 -0 -0 -0 -0 -8 -5 -0 -0 -0 -0 -6
-0 -0 -0 -0 -0 -0 -0 -0 -0 -0 -0 -0 -0 -0 -0 -0 -0 -1 -1 -0 -0 -0
-0 -0 -0 -0 -0 -0 -0 -0 -0 -0 -0 -0 -0 -0 -0 -0 -2 -1 -1 -1 -2 -0
-0 -0 -0 -0 -0 -0 -0 -0 -0 -0 -0 -0 -0 -0 -0 -0 -0 -2 -0 -0 -0 -0
-0 -0 -0 -0 -0 -0 -0 -0 -0 -0 -0 -0 -0 -0 -0 -0 -0 -0 -0 -0 -0 -0
-0 -0 -0 -0 -0 -0 -0 -0 -0 -0 -0 -0 -0 -0 -0 -0 -0 -0 -0 -0 -0 -0
-0 -0 -0 -0 -0 -0 -0 -0 -0 -0 -0 -0 -0 -0 -0 -0 -0 -0 -0 -0 -0 -0
-0 -0 -0 -0 -0 -0 -0 -0 -0 -0 -0 -0 -0 -0 -0 -0 -0 -0 -0 -0 -0 -0
-0 -0 -0 -0 -0 -0 -0 -0 -0 -0 -0 -0 -0 -0 -0 -0 -0 -0 -0 -0 -0 -0
-0 -0 -0 -0 -0 -0 -0 -0 -0 -0 -0 -0 -0 -0 -0 -0 -0 -0 -0 -0 -0 -0
-0 -0 -0 -0 -0 -0 -0 -0 -0 -0 -0 -0 -0 -0 -0 -0 -0 -0 -0 -0 -0 -0
-0 -0 -0 -0 -0 -0 -0 -0 -0 -0 -0 -0 -0 -0 -0 -0 -0 -0 -0 -0 -0 -0
-0 -0 -0 -0 -0 -0 -0 -0 -0 -0 -0 -0 -0 -0 -0 -0 -0 -0 -0 -0 -0 -0
-0 -0 -0 -0 -0 -0 -0 -0 -0 -0 -0 -0 -0 -0 -0 -0 -0 -0 -0 -0 -0 -0
Wind_Speed
34 33 32 31 31 29 29 29 28 27 26 27 25 24 24 24 25 27 26 25 23 20
32 32 32 31 31 30 29 29 28 27 25 24 24 24 24 25 24 25 24 23 23 22
32 32 32 31 31 30 29 29 28 27 26 26 25 25 23 22 22 22 22 20 23 22
34 33 33 32 32 31 30 30 28 27 27 26 26 26 24 23 23 21 20 20 21 22
34 34 34 33 33 32 31 31 29 28 27 27 26 25 25 24 24 23 22 21 20 21
34 34 34 34 34 33 32 31 30 29 28 27 26 25 25 24 23 23 22 21 20 20
34 34 34 34 34 33 32 31 31 30 29 28 27 26 26 25 24 23 22 22 22 21
35 34 35 34 34 33 32 31 31 31 29 29 27 27 27 26 25 24 23 22 22 22
34 36 36 36 35 34 34 32 32 31 31 30 29 28 28 27 25 24 24 23 22 22
32 34 38 38 37 36 35 34 33 32 32 32 31 30 29 28 26 25 25 24 23 23
33 34 33 40 39 38 36 36 35 34 33 33 32 31 31 30 28 26 24 24 24 23
35 33 34 31 41 40 39 37 36 35 35 34 34 32 31 31 29 28 26 25 24 24
33 32 29 28 28 41 40 39 38 37 35 35 34 33 32 30 30 29 28 27 25 25
28 31 27 23 22 31 40 40 39 37 36 34 32 32 31 31 30 29 29 28 27 26
Wind_Direction
333 326 324 326 328 326 324 323 318 319 316 318 317 313 306 300 292 281 281 283 282 281
323 323 322 320 322 322 321 322 318 321 319 320 325 318 313 302 302 290 283 280 282 284
322 316 318 319 318 317 318 318 318 317 317 315 312 318 318 320 311 301 287 292 278 283
322 321 318 315 315 314 314 317 316 319 318 317 315 312 311 316 313 305 300 297 289 281
323 322 320 316 311 311 310 314 315 314 316 318 319 317 313 309 314 312 309 304 298 283
326 323 321 320 315 310 308 308 309 310 309 311 313 315 316 314 310 309 314 308 300 296
324 323 320 320 319 315 310 306 304 303 306 312 311 316 318 317 315 314 312 307 303 303
322 320 320 318 319 318 315 310 303 302 302 306 309 312 314 318 317 311 312 309 307 307
335 316 314 315 313 315 313 311 307 302 301 299 304 309 311 314 313 317 306 303 309 308
341 333 310 308 309 309 309 308 306 306 301 297 298 302 304 310 309 310 308 303 304 301
335 333 332 305 302 302 304 303 305 302 304 299 295 298 299 299 302 308 306 304 306 304
329 329 328 328 300 296 296 298 300 301 299 299 296 295 296 296 296 297 301 302 302 304
333 330 330 327 324 295 291 291 293 296 298 296 296 296 294 294 295 294 295 296 298 299
350 338 336 334 333 315 289 286 288 291 294 295 296 296 294 292 291 291 293 294 293 295